Flag for United Kingdom Weather past 2 weeks in Bristol, England, United Kingdom

Now
52 °F

Passing clouds.


Feels Like: 49 °F
Forecast: 44 / 65 °F
Wind: 7 mph from West

Location: Bristol / Lulsgate

Current Time: Aug 23, 2014 at 9:10:05 AM

Latest Report: Aug 23, 2014 at 8:20 AM


Visibility: N/A

Pressure: 30.01 "Hg

Humidity: 82%

Dew point: 46 °F

Location of BristolLocation

Historic Weather in Bristol — Graph

°F

Bristol temperature yesterday

Maximum temperature yesterday: 63 °F (at 1:20 PM)
Minimum temperature yesterday: 48 °F (at 10:50 PM)
Average temperature yesterday: 55 °F

Past Weeks' High & Low Weather Summary

 TemperatureHumidityPressure
High68 °F (Aug 8, 11:20 AM)100% (Aug 10, 5:20 AM)30.18 "Hg (Aug 10, 5:20 AM)
Low45 °F (Aug 21, 2:20 AM)52% (Aug 16, 1:20 PM)29.27 "Hg (Aug 10, 10:20 AM)
Average56 °F80%29.86 "Hg
* Reported Aug 8 7:20 AM — Aug 23 7:50 AM, Bristol, Weather by CustomWeather, © 2014

Note: Actual official high and low records may vary slightly from our data, if they occured in-between our weather recording intervals... More about our weather records

Advertising

Bristol weather history for previous 24 hours

 ConditionsComfort  
Time TempWeatherWind HumidityBarometerVisibility
7:50 AM
Aug 23
52 °FPassing clouds.7 mph82%29.98 "HgN/A
7:20 AM50 °FPassing clouds.7 mph82%29.98 "HgN/A
6:50 AM48 °FPassing clouds.6 mph87%29.98 "HgN/A
6:20 AM46 °FPassing clouds.6 mph93%29.98 "HgN/A
5:50 AM48 °FClear.5 mph87%29.98 "Hg10 mi
5:20 AM48 °FClear.6 mph87%29.98 "Hg10 mi
4:50 AM48 °FClear.7 mph87%29.98 "Hg10 mi
4:20 AM48 °FClear.5 mph82%29.98 "Hg10 mi
3:50 AM48 °FClear.5 mph82%29.98 "Hg10 mi
3:20 AM48 °FClear.5 mph82%29.98 "Hg10 mi
2:50 AM48 °FClear.5 mph82%29.98 "Hg10 mi
2:20 AM48 °FClear.3 mph76%29.98 "Hg10 mi
1:50 AM48 °FClear.5 mph82%29.98 "Hg10 mi
1:20 AM46 °FClear.6 mph87%29.98 "Hg10 mi
12:50 AM46 °FClear.8 mph87%29.98 "Hg10 mi
12:20 AM46 °FClear.8 mph87%29.98 "Hg10 mi
11:50 PM
Aug 22
48 °FClear.6 mph82%29.98 "Hg10 mi
11:20 PM48 °FClear.7 mph82%29.98 "Hg10 mi
10:50 PM48 °FClear.7 mph82%29.98 "Hg10 mi
10:20 PM50 °FClear.7 mph76%29.98 "Hg10 mi
9:50 PM50 °FPassing clouds.7 mph76%29.98 "HgN/A
9:20 PM50 °FPassing clouds.6 mph76%29.98 "HgN/A
8:50 PM52 °FPassing clouds.7 mph72%29.95 "HgN/A
8:20 PM55 °FPassing clouds.10 mph63%29.95 "HgN/A
7:50 PM55 °FPassing clouds.9 mph67%29.95 "HgN/A
7:20 PM55 °FPassing clouds.8 mph67%29.92 "HgN/A
6:50 PM57 °FPassing clouds.10 mph63%29.92 "HgN/A
6:20 PM59 °FPassing clouds.14 mph59%29.92 "HgN/A
5:50 PM59 °FPassing clouds.15 mph59%29.92 "HgN/A
5:20 PM61 °FPassing clouds.14 mph55%29.92 "HgN/A
4:50 PM61 °FPassing clouds.14 mph59%29.92 "HgN/A
4:20 PM61 °FPassing clouds.16 mph59%29.92 "HgN/A
3:50 PM61 °FPassing clouds.15 mph55%29.92 "HgN/A
3:20 PM61 °FPassing clouds.14 mph52%29.92 "HgN/A
2:50 PM61 °FPassing clouds.14 mph55%29.92 "HgN/A
2:20 PM63 °FScattered clouds.15 mph52%29.92 "HgN/A
1:50 PM61 °FScattered clouds.16 mph59%29.92 "HgN/A
1:20 PM63 °FScattered clouds.15 mph56%29.89 "HgN/A
12:50 PM61 °FScattered clouds.16 mph63%29.89 "HgN/A
12:20 PM61 °FScattered clouds.13 mph63%29.89 "HgN/A
11:50 AM59 °FScattered clouds.13 mph68%29.89 "HgN/A
11:20 AM57 °FScattered clouds.12 mph72%29.89 "HgN/A
10:50 AM57 °FScattered clouds.13 mph72%29.89 "HgN/A
10:20 AM57 °FPassing clouds.12 mph77%29.89 "HgN/A
9:50 AM57 °FPassing clouds.9 mph82%29.86 "HgN/A
9:20 AM55 °FPassing clouds.7 mph88%29.86 "HgN/A
Weather by CustomWeather, © 2014

See weather overviewHow to use our weather pages